TimeEDT,TemperatureF,Dew PointF,Humidity,Sea Level PressureIn,VisibilityMPH,Wind Direction,Wind SpeedMPH,Gust SpeedMPH,PrecipitationIn,Events,Conditions,WindDirDegrees,DateUTC
12:00 AM,32.0,26.6,80,29.54,9.0,ENE,19.6,-,N/A,,Overcast,60,2012-10-13 04:00:00
1:00 AM,35.6,26.6,70,29.53,9.0,East,12.7,-,N/A,,Overcast,80,2012-10-13 05:00:00
2:00 AM,36,23,48,29.54,9,ESE,10.4,,,,,120,2012-10-13 06:00:00
2:00 AM,35.6,23.0,60,29.54,9.0,SE,10.4,-,N/A,,Mostly Cloudy,130,2012-10-13 06:00:00
3:00 AM,35.6,24.8,65,29.55,9.0,East,18.4,-,N/A,,Mostly Cloudy,80,2012-10-13 07:00:00
4:00 AM,35.6,24.8,65,29.55,9.0,Calm,Calm,-,N/A,,Mostly Cloudy,0,2012-10-13 08:00:00
5:00 AM,33,26,67,29.55,9,NE,9.2,,,,,50,2012-10-13 09:00:00
5:00 AM,33.8,26.6,75,29.55,9.0,ENE,10.4,-,N/A,,Mostly Cloudy,60,2012-10-13 09:00:00
7:00 AM,32.0,24.8,75,29.59,9.0,SSE,5.8,-,N/A,,Mostly Cloudy,160,2012-10-13 11:00:00
8:00 AM,30,23,67,29.60,9,West,4.6,,,,,260,2012-10-13 12:00:00
8:00 AM,30.2,23.0,75,29.60,9.0,West,4.6,-,N/A,,Mostly Cloudy,270,2012-10-13 12:00:00
10:00 AM,28.4,23.0,80,29.61,9.0,NE,4.6,-,N/A,,Clear,40,2012-10-13 14:00:00
11:00 AM,26,21,73,29.60,9,SE,3.5,,,,,130,2012-10-13 15:00:00
12:00 PM,26.6,19.4,74,29.60,9.0,South,8.1,-,N/A,,Clear,180,2012-10-13 16:00:00
1:00 PM,26.6,19.4,74,29.60,9.0,SE,2.3,-,N/A,,Clear,130,2012-10-13 17:00:00
2:00 PM,28,20,63,29.60,9,ENE,4.6,,,,,70,2012-10-13 18:00:00
2:00 PM,28.4,21.2,74,29.62,20.0,ENE,4.6,-,N/A,,Scattered Clouds,70,2012-10-13 18:00:00
3:00 PM,24.8,19.4,80,29.62,15.0,SSE,3.5,-,N/A,,Mostly Cloudy,150,2012-10-13 19:00:00
4:00 PM,28.4,21.2,74,29.62,15.0,Calm,Calm,-,N/A,,Mostly Cloudy,0,2012-10-13 20:00:00
5:00 PM,24.8,21.2,86,29.62,15.0,SSE,2.3,-,N/A,,Mostly Cloudy,160,2012-10-13 21:00:00
6:00 PM,28.4,21.2,74,29.62,9.0,Calm,Calm,-,N/A,,Clear,0,2012-10-13 22:00:00
8:00 PM,28.4,21.2,74,29.62,9.0,NE,3.5,-,N/A,,Clear,50,2012-10-14 00:00:00
9:00 PM,28.4,24.8,86,29.61,9.0,WNW,4.6,-,N/A,,Partly Cloudy,290,2012-10-14 01:00:00
10:00 PM,26.6,23.0,86,29.61,9.0,SSE,8.1,-,N/A,,Clear,150,2012-10-14 02:00:00
11:00 PM,27,23,78,29.60,9,SSW,5.8,,,,,200,2012-10-14 03:00:00
11:00 PM,26.6,23.0,86,29.60,9.0,SSW,6.9,-,N/A,,Clear,200,2012-10-14 03:00:00